Regional Weather Roundup
Issued by NWS

Home | Current Version | Previous Version | Graphics & Text | Print | Product List | Glossary Off
Versions: 1 2 3 4 5 6 7 8 9 10 11 12 13 14 15 16 17 18 19 20 21 22 23 24 25 26 27 28 29 30 31 32 33 34 35 36 37 38 39 40 41 42 43 44 45 46 47 48 49 50

000
ASUS43 KLSX 280007
RWRMO

WEATHER SUMMARY FOR MISSOURI
NATIONAL WEATHER SERVICE SPRINGFIELD MO
700 PM CDT WED JUL 27 2016

NOTE: "FAIR" INDICATES FEW OR NO CLOUDS BELOW 12,000 FEET WITH NO
       SIGNIFICANT WEATHER AND/OR OBSTRUCTIONS TO VISIBILITY.
       CURRENT SKY AND/OR WEATHER CONDITIONS ARE NOT AVAILABLE FOR
       CHILLICOTHE AND FARMINGTON.

MOZ001>031-035>038-043-044-053-054-280100-
...NORTHERN AND WESTERN MISSOURI...

CITY           SKY/WX    TMP DP  RH WIND       PRES   REMARKS
KANSAS CTY INT MOSUNNY   84  72  67 CALM      29.91F
6HR MIN TEMP:  84; 6HR MAX TEMP:  90;

KANSAS C DTWN  MOSUNNY   89  67  47 NW6       29.89F HX  92
6HR MIN TEMP:  89; 6HR MAX TEMP:  94;

LEE`S SUMMIT   SUNNY     89  68  49 CALM      29.91F HX  93
6HR MIN TEMP:  87; 6HR MAX TEMP:  91;

ST JOSEPH      MOSUNNY   86  71  60 S5        29.89F HX  91
6HR MIN TEMP:  85; 6HR MAX TEMP:  88;

CHILLICOTHE      N/A     88  72  58 VRB3      29.91S HX  94
6HR MIN TEMP:  87; 6HR MAX TEMP:  91;

KIRKSVILLE     PTSUNNY   88  69  53 NW7       29.92S HX  92
6HR MIN TEMP:  87; 6HR MAX TEMP:  92;


$$
MOZ066>068-077>081-088>096-101>105-280100-
...SOUTHWEST MISSOURI...

CITY           SKY/WX    TMP DP  RH WIND       PRES   REMARKS
SPRINGFIELD    PTSUNNY   82  74  76 CALM      29.93S
6HR MIN TEMP:  78; 6HR MAX TEMP:  89;

JOPLIN         MOSUNNY   83  72  69 VRB5      29.93S
6HR MIN TEMP:  79; 6HR MAX TEMP:  91;

BRANSON        PTSUNNY   82  75  78 CALM      29.95S

$$
MOZ032>034-039>042-045>050-055>058-069>072-280100-
...CENTRAL MISSOURI...

CITY           SKY/WX    TMP DP  RH WIND       PRES   REMARKS
COLUMBIA       SUNNY     87  73  62 SW5       29.91S HX  94
6HR MIN TEMP:  86; 6HR MAX TEMP:  90;

JEFFERSON CITY CLOUDY    88  75  65 SE5       29.89S HX  97
6HR MIN TEMP:  86; 6HR MAX TEMP:  92;

ROLLA          MOSUNNY   86  73  65 S3        29.92S HX  93
6HR MIN TEMP:  83; 6HR MAX TEMP:  88;

SEDALIA        SUNNY     88  77  69 CALM      29.91F HX 100
6HR MIN TEMP:  88; 6HR MAX TEMP:  92;

WHITEMAN AFB   MOSUNNY   88  73  61 CALM      29.89F HX  96
OSAGE BEACH    MOSUNNY   86  75  69 S5        29.93R HX  95

$$
MOZ051-052-059>065-280100-
...EAST CENTRAL MISSOURI...

CITY           SKY/WX    TMP DP  RH WIND       PRES   REMARKS
ST LOUIS INTL  CLOUDY    87  71  58 S12       29.90R HX  93
6HR MIN TEMP:  87; 6HR MAX TEMP:  93;

SPIRIT OF STL  CLOUDY    85  75  72 S8        29.88R HX  93
6HR MIN TEMP:  85; 6HR MAX TEMP:  92;

ST CHARLES     PTSUNNY   87  76  69 VRB3      29.88R HX  97
6HR MIN TEMP:  86; 6HR MAX TEMP:  90;


$$
MOZ072>076-082>087-097>100-106>115-280100-
...SOUTH CENTRAL AND SOUTHEAST MISSOURI...

CITY           SKY/WX    TMP DP  RH WIND       PRES   REMARKS
CAPE GIRARDEAU TSTM      74  70  87 E20G44    29.92R VSB 1/2
6HR MIN TEMP:  75; 6HR MAX TEMP:  93; 6HR PCP:  0.16;

FARMINGTON     PTSUNNY   81  75  82 CALM      29.94
6HR MIN TEMP:  75; 6HR MAX TEMP:  88; 6HR PCP:  0.02;

POPLAR BLUFF   HVY RAIN  81  74  79 SE14      29.89R
6HR MIN TEMP:  84; 6HR MAX TEMP:  93;

WEST PLAINS    LGT RAIN  74  70  87 N5        29.98F
6HR MIN TEMP:  74; 6HR MAX TEMP:  90; 6HR PCP:  0.06;


$$


USA.gov is the U.S. government's official web portal to all federal, state and local government web resources and services.